FW6948 Weather Reports


time (UTC)temp
C
wind
direction
speed
KPH
gust
KPH
rain 1hr
cm
rain 24hr
cm
rain mn
cm
humidity
%
barometer
mb
20260507145454 12 180 12.9 22.5 0.00 0.03 0.03 79 1016.8
20260507144944 12 225 4.8 14.5 0.00 0.03 0.03 79 1016.8
20260507144435 12 225 6.4 11.3 0.00 0.03 0.03 79 1016.6
20260507143923 12 90 4.8 9.7 0.00 0.03 0.03 80 1016.4
20260507143413 12 225 3.2 11.3 0.00 0.03 0.03 83 1016.5
20260507142903 12 158 3.2 11.3 0.00 0.03 0.03 84 1016.4
20260507141844 12 248 6.4 22.5 0.00 0.03 0.03 82 1016.2
20260507140833 13 180 9.7 25.7 0.00 0.03 0.03 79 1016.0
20260507140313 12 225 9.7 25.7 0.00 0.03 0.03 80 1016.1
20260507135254 12 248 9.7 22.5 0.00 0.03 0.03 84 1016.5
20260507134742 12 113 11.3 22.5 0.00 0.03 0.03 84 1016.8
20260507134233 11 135 6.4 12.9 0.00 0.03 0.03 85 1016.8
20260507133213 11 180 3.2 9.7 0.00 0.03 0.03 85 1016.9
20260507132704 12 225 3.2 9.7 0.00 0.03 0.03 85 1016.6
20260507132152 12 113 3.2 14.5 0.00 0.03 0.03 85 1016.5
20260507131132 12 203 6.4 27.4 0.00 0.03 0.03 84 1016.3
20260507125601 11 203 6.4 22.5 0.00 0.03 0.03 88 1016.2
20260507125051 11 158 4.8 14.5 0.00 0.03 0.03 89 1016.0
20260507124031 12 23 3.2 25.7 0.00 0.03 0.03 88 1015.6
20260507123014 12 45 4.8 22.5 0.00 0.03 0.03 89 1015.3
20260507122500 12 45 4.8 25.7 0.00 0.03 0.03 89 1015.2
20260507121951 12 203 12.9 25.7 0.03 0.03 0.03 90 1015.2
20260507121441 12 68 4.8 17.7 0.03 0.03 0.03 91 1015.1
20260507120932 12 23 4.8 17.7 0.03 0.03 0.03 91 1015.2
20260507120420 12 135 6.4 24.1 0.03 0.03 0.03 92 1015.0
20260507115909 12 225 4.8 24.1 0.03 0.03 0.03 92 1015.0
20260507114850 13 158 8.0 24.1 0.03 0.03 0.03 93 1014.5
20260507114341 13 225 9.7 22.5 0.03 0.03 0.03 93 1014.2
20260507113829 13 225 4.8 22.5 0.03 0.03 0.03 93 1014.2
20260507113319 13 135 8.0 14.5 0.03 0.03 0.03 95 1013.9
20260507112259 14 135 3.2 20.9 0.03 0.03 0.03 96 1013.3
20260507111752 15 113 1.6 20.9 0.00 0.00 0.00 96 1012.8
20260507111239 15 225 6.4 14.5 0.00 0.00 0.00 97 1012.3
20260507110729 16 68 3.2 9.7 0.00 0.00 0.00 97 1012.2
20260507110218 15 158 0.0 6.4 0.00 0.00 0.00 97 1011.6
20260507105709 15 270 3.2 3.2 0.00 0.00 0.00 97 1011.5
20260507105159 15 113 3.2 3.2 0.00 0.00 0.00 97 1011.2
20260507104649 14 0 1.6 6.4 0.00 0.00 0.00 97 1011.2
20260507104138 14 0 1.6 11.3 0.00 0.00 0.00 97 1011.0
20260507103628 14 135 3.2 11.3 0.00 0.00 0.00 97 1010.8
20260507103119 13 23 3.2 3.2 0.00 0.00 0.00 97 1010.8
20260507102610 13 68 3.2 6.4 0.00 0.00 0.00 97 1010.5
20260507102058 13 315 0.0 6.4 0.00 0.00 0.00 96 1010.4
20260507101552 13 23 3.2 6.4 0.00 0.00 0.00 96 1010.1
20260507100528 13 45 3.2 3.2 0.00 0.00 0.00 96 1009.7
20260507100019 13 315 0.0 3.2 0.00 0.00 0.00 96 1009.3
20260507095507 13 23 1.6 3.2 0.00 0.00 0.00 96 1009.2
20260507094958 13 0 0.0 3.2 0.00 0.00 0.00 96 1009.2
20260507094444 13 45 1.6 6.4 0.00 0.00 0.00 96 1009.1
20260507093936 13 68 3.2 6.4 0.00 0.00 0.00 96 1009.0
20260507092917 13 135 1.6 3.2 0.00 0.00 0.00 96 1009.0
20260507092407 13 23 0.0 3.2 0.00 0.00 0.00 96 1009.0
20260507091856 13 68 1.6 3.2 0.00 0.00 0.00 96 1008.9
20260507091347 13 113 0.0 3.2 0.00 0.00 0.00 96 1008.9
20260507090327 13 113 0.0 3.2 0.00 0.00 0.00 96 1008.8
20260507085816 13 68 1.6 3.2 0.00 0.00 0.00 96 1008.7
20260507084756 13 23 0.0 0.0 0.00 0.00 0.00 96 1008.7
20260507084247 13 23 0.0 0.0 0.00 0.00 0.00 96 1008.5
20260507083736 13 23 0.0 0.0 0.00 0.00 0.00 96 1008.7
20260507083226 13 68 0.0 0.0 0.00 0.00 0.00 96 1008.5
20260507082716 13 45 0.0 0.0 0.00 0.00 0.00 96 1008.5
20260507081657 13 68 0.0 0.0 0.00 0.00 0.00 96 1008.4
20260507081145 13 23 0.0 0.0 0.00 0.00 0.00 96 1008.5
20260507080635 13 23 0.0 0.0 0.00 0.00 0.00 96 1008.8
20260507080125 12 23 0.0 3.2 0.00 0.00 0.00 96 1008.3
20260507075615 12 68 0.0 3.2 0.00 0.00 0.00 96 1008.3
20260507075106 11 68 0.0 3.2 0.00 0.00 0.00 96 1008.4
20260507074554 11 45 0.0 3.2 0.00 0.00 0.00 96 1008.8
20260507073534 11 68 0.0 3.2 0.00 0.00 0.00 95 1008.5
20260507073024 11 45 0.0 3.2 0.00 0.00 0.00 95 1008.4
20260507072516 11 68 3.2 3.2 0.00 0.00 0.00 95 1008.2
20260507071454 11 45 0.0 0.0 0.00 0.00 0.00 95 1008.3
20260507070944 11 23 0.0 0.0 0.00 0.00 0.00 95 1008.0
20260507070433 11 23 0.0 0.0 0.00 0.00 0.00 95 1008.4
20260507065925 11 315 0.0 0.0 0.00 0.00 0.00 95 1008.2
20260507064903 11 45 0.0 3.2 0.00 0.00 0.00 95 1008.7
20260507064352 11 90 0.0 3.2 0.00 0.00 0.00 94 1008.4
20260507063842 11 293 0.0 0.0 0.00 0.00 0.00 95 1008.7
20260507063334 11 0 0.0 0.0 0.00 0.00 0.00 95 1008.5
20260507062823 11 23 0.0 3.2 0.00 0.00 0.00 95 1008.8
20260507062312 11 113 0.0 3.2 0.00 0.00 0.00 95 1008.7
20260507061802 11 45 3.2 3.2 0.00 0.00 0.00 94 1008.8
20260507060742 11 68 0.0 0.0 0.00 0.00 0.00 94 1008.8
20260507060151 11 0 0.0 0.0 0.00 0.00 0.00 94 1008.9
20260507055919 11 68 0.0 6.4 0.00 0.00 0.00 94 1009.1
20260507055409 11 293 0.0 6.4 0.00 0.00 0.00 94 1009.0
20260507054859 11 68 1.6 3.2 0.00 0.00 0.00 94 1008.8
20260507054348 11 68 0.0 3.2 0.00 0.00 0.00 94 1008.9
20260507053839 11 135 1.6 3.2 0.00 0.00 0.00 93 1008.9
20260507053328 12 68 3.2 3.2 0.00 0.00 0.00 93 1008.8
20260507052818 12 23 0.0 3.2 0.00 0.00 0.00 94 1009.1
20260507051758 12 45 3.2 3.2 0.00 0.00 0.00 93 1008.9
20260507050738 12 68 0.0 3.2 0.00 0.00 0.00 92 1009.0
20260507050228 12 0 1.6 3.2 0.00 0.00 0.00 92 1009.1
20260507045718 12 68 0.0 3.2 0.00 0.00 0.00 92 1009.0
20260507045207 13 23 0.0 3.2 0.00 0.00 0.00 92 1009.3
20260507044659 13 68 0.0 3.2 0.00 0.00 0.00 92 1009.2
20260507044148 13 113 3.2 3.2 0.00 0.00 0.00 92 1009.2
20260507043637 13 203 0.0 3.2 0.00 0.00 0.00 92 1009.3
20260507043127 13 270 1.6 3.2 0.00 0.00 0.00 92 1009.3
20260507042110 13 45 0.0 3.2 0.00 0.00 0.00 92 1009.8
20260507041556 13 68 1.6 3.2 0.00 0.00 0.00 91 1009.9
20260507040536 13 315 0.0 6.4 0.00 0.00 0.00 91 1010.0
20260507040026 13 248 3.2 6.4 0.00 0.00 0.00 92 1009.8
20260507035518 13 68 1.6 6.4 0.00 0.00 0.00 91 1009.7
20260507035006 13 293 1.6 6.4 0.00 0.00 0.00 92 1009.9
20260507033946 13 68 3.2 3.2 0.00 0.00 0.00 89 1009.9
20260507033436 13 45 3.2 3.2 0.00 0.00 0.00 87 1009.9
20260507032927 13 23 1.6 6.4 0.00 0.00 0.00 84 1010.1
20260507032415 13 113 0.0 9.7 0.00 0.00 0.00 82 1010.1
20260507031906 14 315 1.6 9.7 0.00 0.00 0.00 81 1009.9
20260507031355 13 45 3.2 9.7 0.00 0.00 0.00 79 1010.0
20260507030845 14 180 3.2 6.4 0.00 0.00 0.00 76 1009.3
20260507030337 15 203 1.6 25.7 0.00 0.00 0.00 74 1009.0
20260507025825 15 338 1.6 25.7 0.00 0.00 0.00 73 1008.7
20260507025314 16 225 6.4 17.7 0.00 0.00 0.00 67 1008.4
20260507024805 16 68 3.2 9.7 0.00 0.00 0.00 67 1008.2
20260507024255 15 45 4.8 9.7 0.00 0.00 0.00 64 1008.7
20260507023745 15 23 3.2 6.4 0.00 0.00 0.00 76 1008.4
20260507023234 15 45 4.8 6.4 0.00 0.00 0.00 77 1008.3
20260507022724 15 68 4.8 6.4 0.00 0.00 0.00 71 1008.4
20260507022214 13 45 4.8 6.4 0.00 0.00 0.00 75 1008.2
20260507021704 13 45 3.2 6.4 0.00 0.00 0.00 90 1008.3
20260507021155 13 113 3.2 6.4 0.00 0.00 0.00 92 1008.7
20260507020644 12 23 3.2 6.4 0.00 0.00 0.00 93 1008.3
20260507020134 13 135 3.2 9.7 0.00 0.00 0.00 93 1008.5
20260507015623 13 0 4.8 9.7 0.00 0.00 0.00 93 1008.8
20260507015113 13 0 4.8 6.4 0.00 0.00 0.00 92 1008.8
20260507014605 13 0 4.8 6.4 0.00 0.00 0.00 92 1008.9
20260507014053 14 23 3.2 6.4 0.00 0.00 0.00 92 1009.2
20260507013543 14 0 3.2 6.4 0.00 0.00 0.00 92 1009.2
20260507013033 15 23 3.2 3.2 0.00 0.00 0.00 93 1009.5
20260507012523 15 45 3.2 6.4 0.00 0.00 0.00 93 1009.7
20260507012014 15 338 0.0 6.4 0.00 0.00 0.00 93 1009.7
20260507011503 15 0 3.2 6.4 0.00 0.00 0.00 93 1009.5
20260507010953 15 0 3.2 6.4 0.00 0.00 0.00 94 1009.8
20260507010443 16 0 1.6 6.4 0.00 0.00 0.00 94 1009.9
20260507005424 16 23 1.6 6.4 0.00 0.00 0.00 94 1010.0
20260507004914 16 45 3.2 6.4 0.00 0.00 0.00 94 1009.8
20260507004402 15 68 0.0 3.2 0.00 0.00 0.00 93 1010.1
20260507003853 16 45 0.0 6.4 0.00 0.00 0.00 93 1010.1
20260507003342 16 338 1.6 6.4 0.00 0.00 0.00 94 1009.9
20260507002322 16 45 3.2 6.4 0.00 0.00 0.00 93 1010.2
20260507001812 16 0 1.6 6.4 0.00 0.00 0.00 93 1010.0
20260507001305 16 68 3.2 6.4 0.00 0.00 0.00 93 1010.2
20260507000751 16 23 3.2 3.2 0.00 0.00 0.00 92 1010.2
20260507000243 16 248 0.0 3.2 0.00 0.00 0.00 92 1010.1
20260506235731 16 203 3.2 6.4 0.00 0.00 0.00 93 1010.2
20260506235220 16 338 0.0 6.4 0.00 0.00 0.00 93 1010.3
20260506234711 16 68 3.2 9.7 0.00 0.00 0.00 93 1010.5
20260506234200 16 248 0.0 11.3 0.00 0.00 0.00 93 1010.4
20260506233652 16 68 3.2 11.3 0.00 0.00 0.00 92 1010.8
20260506233140 17 270 3.2 6.4 0.00 0.00 0.00 92 1010.5
20260506232630 17 135 3.2 3.2 0.00 0.00 0.00 91 1010.3
20260506232120 17 338 1.6 3.2 0.00 0.00 0.00 91 1010.3
20260506231610 17 23 1.6 6.4 0.00 0.00 0.00 91 1010.7
20260506231102 17 45 1.6 6.4 0.00 0.00 0.00 90 1010.5
20260506230550 17 338 3.2 6.4 0.00 0.00 0.00 90 1010.7
20260506230039 18 45 0.0 3.2 0.00 0.00 0.00 90 1010.7
20260506225530 18 23 1.6 3.2 0.00 0.00 0.00 90 1010.5
20260506225019 18 0 0.0 3.2 0.00 0.00 0.00 89 1010.5
20260506223959 18 90 1.6 3.2 0.00 0.00 0.00 88 1010.4
20260506222939 19 23 0.0 3.2 0.00 0.00 0.00 87 1010.4
20260506222428 19 23 0.0 6.4 0.00 0.00 0.00 87 1010.1
20260506221409 20 45 0.0 3.2 0.00 0.00 0.00 86 1010.1
20260506220859 20 45 1.6 3.2 0.00 0.00 0.00 85 1010.2
20260506220348 20 158 3.2 3.2 0.00 0.00 0.00 84 1010.2
20260506215839 20 90 1.6 3.2 0.00 0.00 0.00 83 1009.9
20260506215330 21 270 1.6 3.2 0.00 0.00 0.00 81 1010.0
20260506214818 21 23 0.0 3.2 0.00 0.00 0.00 81 1009.9
20260506214308 21 45 0.0 6.4 0.00 0.00 0.00 80 1009.7
20260506213800 22 90 1.6 6.4 0.00 0.00 0.00 80 1009.9
20260506213248 22 45 3.2 3.2 0.00 0.00 0.00 79 1009.8
20260506212739 22 0 0.0 3.2 0.00 0.00 0.00 77 1009.9
20260506212228 22 293 0.0 3.2 0.00 0.00 0.00 77 1009.9
20260506211718 23 293 1.6 6.4 0.00 0.00 0.00 76 1010.0
20260506211207 23 45 3.2 6.4 0.00 0.00 0.00 76 1009.7
20260506210657 23 23 3.2 6.4 0.00 0.00 0.00 75 1009.8
20260506205639 23 315 3.2 6.4 0.00 0.00 0.00 74 1009.7
20260506205126 23 23 3.2 6.4 0.00 0.00 0.00 73 1009.8
20260506204617 24 23 1.6 6.4 0.00 0.00 0.00 73 1009.8
20260506204106 24 45 1.6 9.7 0.00 0.00 0.00 72 1009.4
20260506203558 24 45 3.2 11.3 0.00 0.00 0.00 72 1009.1
20260506203047 25 45 3.2 11.3 0.00 0.00 0.00 71 1009.5
20260506202537 25 113 3.2 9.7 0.00 0.00 0.00 72 1009.1
20260506202027 25 68 1.6 9.7 0.00 0.00 0.00 71 1009.2
20260506201517 25 0 3.2 9.7 0.00 0.00 0.00 71 1009.1
20260506201008 25 293 3.2 11.3 0.00 0.00 0.00 70 1009.1
20260506200456 25 45 3.2 11.3 0.00 0.00 0.00 70 1009.0
20260506195945 25 315 3.2 12.9 0.00 0.00 0.00 70 1009.0
20260506194925 25 23 6.4 9.7 0.00 0.00 0.00 70 1009.4
20260506194417 25 45 6.4 14.5 0.00 0.00 0.00 69 1009.2
20260506193905 25 315 1.6 14.5 0.00 0.00 0.00 70 1009.2
20260506193401 25 0 6.4 14.5 0.00 0.00 0.00 68 1009.2
20260506192845 25 315 4.8 14.5 0.00 0.00 0.00 69 1009.3
20260506192334 25 45 6.4 11.3 0.00 0.00 0.00 69 1009.2
20260506191314 25 0 6.4 14.5 0.00 0.00 0.00 68 1009.2
20260506190805 25 45 3.2 14.5 0.00 0.00 0.00 69 1009.2
20260506190254 25 293 1.6 14.5 0.00 0.00 0.00 69 1009.3
20260506185744 25 113 6.4 14.5 0.00 0.00 0.00 68 1009.4
20260506185236 26 45 6.4 14.5 0.00 0.00 0.00 67 1009.3
20260506184724 26 68 8.0 14.5 0.00 0.00 0.00 67 1009.5
20260506184215 26 68 3.2 11.3 0.00 0.00 0.00 69 1009.3
20260506183712 26 0 3.2 12.9 0.00 0.00 0.00 68 1009.3
20260506183154 26 45 3.2 12.9 0.00 0.00 0.00 67 1009.7
20260506182645 26 68 6.4 12.9 0.00 0.00 0.00 67 1009.8
20260506182134 26 270 3.2 12.9 0.00 0.00 0.00 69 1009.7
20260506181624 26 45 3.2 12.9 0.00 0.00 0.00 67 1009.4
20260506181114 26 23 6.4 12.9 0.00 0.00 0.00 67 1009.4
20260506180056 26 45 3.2 11.3 0.00 0.00 0.00 68 1009.7
20260506175544 26 338 3.2 12.9 0.00 0.00 0.00 65 1010.0
20260506175033 26 135 6.4 12.9 0.00 0.00 0.00 65 1010.1
20260506174522 26 68 6.4 12.9 0.00 0.00 0.00 65 1010.1
20260506174012 26 23 3.2 12.9 0.00 0.00 0.00 66 1010.0
20260506173504 26 23 6.4 11.3 0.00 0.00 0.00 65 1010.1
20260506172952 26 45 3.2 12.9 0.00 0.00 0.00 64 1010.1
20260506172443 26 338 6.4 12.9 0.00 0.00 0.00 63 1010.1
20260506171423 26 45 4.8 11.3 0.00 0.00 0.00 62 1010.2
20260506170913 26 315 3.2 11.3 0.00 0.00 0.00 62 1010.3
20260506165341 26 23 6.4 12.9 0.00 0.00 0.00 59 1011.0
20260506164832 26 338 6.4 11.3 0.00 0.00 0.00 58 1010.9
20260506164323 26 338 4.8 11.3 0.00 0.00 0.00 60 1011.2
20260506163301 26 23 3.2 9.7 0.00 0.00 0.00 61 1011.0
20260506162751 26 270 0.0 14.5 0.00 0.00 0.00 60 1011.1
20260506162241 26 270 3.2 14.5 0.00 0.00 0.00 57 1011.2
20260506161735 26 0 4.8 12.9 0.00 0.00 0.00 58 1011.4
20260506161220 25 23 6.4 12.9 0.00 0.00 0.00 57 1011.1
20260506160714 25 90 3.2 11.3 0.00 0.00 0.00 60 1011.5
20260506160201 25 315 4.8 12.9 0.00 0.00 0.00 61 1011.6
20260506155650 25 315 6.4 12.9 0.00 0.00 0.00 62 1011.8
20260506155142 25 315 6.4 12.9 0.00 0.00 0.00 60 1011.6
20260506153610 25 135 4.8 14.5 0.00 0.00 0.00 64 1012.0
20260506153100 25 0 4.8 17.7 0.00 0.00 0.00 66 1011.8
20260506152551 25 45 6.4 17.7 0.00 0.00 0.00 64 1012.1
20260506151529 25 315 6.4 12.9 0.00 0.00 0.00 64 1012.2
20260506151019 24 68 6.4 14.5 0.00 0.00 0.00 63 1012.2
20260506150510 24 23 6.4 14.5 0.00 0.00 0.00 66 1012.4
20260506150001 24 113 4.8 9.7 0.00 0.00 0.00 64 1012.6